Regional Weather Roundup
Issued by NWS Wilmington, NC

Home | Current Version | Previous Version | Text Only | Print | Product List | Glossary On
Versions: 1 2 3 4 5 6 7 8 9 10 11 12 13 14 15 16 17 18 19 20 21 22 23 24 25 26 27 28 29 30 31 32 33 34 35 36 37 38 39 40 41 42 43 44 45 46 47 48 49 50
000
ASUS42 KILM 290513
RWRILM
RWRILM
REGIONAL HOURLY WEATHER ROUNDUP
NATIONAL WEATHER SERVICE WILMINGTON NC
100 AM EDT WED JUL 29 2015

NOTE: "FAIR" INDICATES FEW OR NO CLOUDS BELOW 12,000 FEET WITH NO
SIGNIFICANT WEATHER AND/OR OBSTRUCTIONS TO VISIBILITY.

...............WFO WILMINGTON COUNTY WARNING AREA...............

......COASTAL NC AND SC COUNTIES......

CITY           SKY/WX    TMP DP  RH WIND       PRES   REMARKS
WILMINGTON     PTCLDY    74  71  91 CALM      29.98F
N MYRTLE BEACH CLEAR     80  72  76 E8        29.98F
MYRTLE BEACH   CLEAR     81  70  69 E7        30.00F

......INLAND NC AND SC COUNTIES.......

CITY           SKY/WX    TMP DP  RH WIND       PRES   REMARKS
LUMBERTON      CLEAR     77  70  79 CALM      30.00R
ELIZABETHTOWN  PTCLDY    75  71  86 SE3       30.00S
WHITEVILLE     CLEAR     73  70  89 CALM      30.00R
FLORENCE       PTCLDY    78  71  79 SE3       29.99S
DARLINGTON     PTCLDY    77  66  69 S3        30.00S

....................REST OF NORTH CAROLINA......................

.........EASTERN NC.........

CITY           SKY/WX    TMP DP  RH WIND       PRES   REMARKS
CAPE HATTERAS  MOCLDY    77  69  76 E7        30.01S
JACKSONVILLE   MOCLDY    72  66  83 CALM      30.00F
MOREHEAD CITY  PTCLDY    79  71  76 E6        29.99F
KENANSVILLE    MOCLDY    72  70  93 CALM      30.01F
NEW BERN       PTCLDY    74  70  87 CALM      30.02S
ELIZABETH CITY CLEAR     76  71  85 S5        30.01F

.........CENTRAL NC.........

CITY           SKY/WX    TMP DP  RH WIND       PRES   REMARKS
RALEIGH DURHAM MOCLDY    79  73  82 SE3       30.02R
ROCKY MOUNT    MOCLDY    77  72  84 S3        30.01S
ROANOKE RAPIDS NOT AVBL
FAYETTEVILLE   CLEAR     77  69  76 S6        29.99S
HOFFMAN        CLEAR     77  70  79 S6        30.00R

.........WESTERN NC.........

CITY           SKY/WX    TMP DP  RH WIND       PRES   REMARKS
CHARLOTTE      MOCLDY    76  71  85 CALM      30.02R
GREENSBORO     PTCLDY    74  74 100 E3        30.01S FOG
HICKORY        NOT AVBL
BOONE          NOT AVBL
ASHEVILLE      NOT AVBL

.....................REST OF SOUTH CAROLINA.....................

.........EASTERN SC.........

CITY           SKY/WX    TMP DP  RH WIND       PRES   REMARKS
CHARLESTON     MOCLDY    78  73  84 N3        29.97S
BEAUFORT MCAS  PTCLDY    81  76  84 CALM      29.97F
HILTON HEAD    CLOUDY    79  75  89 NE3       29.98S

.........CENTRAL SC.........

CITY           SKY/WX    TMP DP  RH WIND       PRES   REMARKS
COLUMBIA       MOCLDY    80  75  84 SE6       29.99R
ORANGEBURG     MOCLDY    80  71  74 S5        29.99S
SUMTER SHAW    PTCLDY    78  68  70 S2        29.97S

.........WESTERN SC.........

CITY           SKY/WX    TMP DP  RH WIND       PRES   REMARKS
GREENVILLE     NOT AVBL
ROCK HILL      PTCLDY    73  72  96 CALM      30.01S
ANDERSON       PTCLDY    78  72  81 CALM      30.00S
CLEMSON        NOT AVBL
GREENWOOD      FOG       74  72  93 CALM      30.02R VSB 3/4


...................COASTAL AND OFFSHORE REPORTS..................

................LOCAL PIERS AND NC RESERVE................


STATION/POSITION TIME  SKY/WX   TEMP    WIND        PRES    VSBY
                                AIR SEA DIR/SP/G
                 (UTC)          (F)     (DEG/KT/KT) (MB)    (MI)
JOHNY MRCER PIER 0400            81 85   80/ 10/ 11 1015.3R
NC RESRV MASNBRO NOT AVBL
OCEAN CREST PIER NOT AVBL
SPRINGMAID  PIER 0400            81 86   70/ 10/ 12 1015.5R


................COASTAL AND OFFSHORE BUOYS................


STATION/POSITION TIME  SKY/WX   TEMP    WIND        PRES    VSBY
                                AIR SEA DIR/SP/G
                 (UTC)          (F)     (DEG/KT/KT) (MB)    (MI)
DIMNDSHOAL 41025 NOT AVBL
CAPE LOOKOUT     0500            81      90/ 12/ 13 1015.3F
ONSLOW BAY 41036 NOT AVBL
5 WRITEBCH 41038 0408            81 81  100/ 10/ 12 1015.7R
MASONBORO  41110 0419               81                N/A
WVE H/P(F/S)=  4/ 7 WND WVE H/P(F/S)=  3/ 7

WILM HARBR 41108 0411               82                N/A
WVE H/P(F/S)=  3/ 7 WND WVE H/P(F/S)=  3/ 7

27WRITEBCH 41037 0400            78 81   90/ 10/ 14   N/A
FRYING PAN 41013 0450            83 84   70/ 10/ 12 1015.4F
WVE H/P(F/S)=  4/ 7 WND WVE H/P(F/S)=  2/ 4 SWL H/P/D(F/S/D)=  3/150/ 7

SUNST NRSH 41024 0408            81     100/  8/ 12 1015.2F
CAPRS NRSH 41029 0408            82      80/ 12/ 14 1015.0F
EDISTO     41004 0450            83 84   80/  8/  8 1014.2F
WVE H/P(F/S)=  3/ 6 WND WVE H/P(F/S)=  2/ 4 SWL H/P/D(F/S/D)=  3/ 6



..........OFFSHORE BUOYS BEYOND 100 NM OFFSHORE...........
.....IN A TRIANGLE---HAT TO BERMUDA TO BAHAMAS TO HAT.....


STATION/POSITION TIME  SKY/WX   TEMP    WIND        PRES    VSBY
                                AIR SEA DIR/SP/G
                 (UTC)          (F)     (DEG/KT/KT) (MB)    (MI)
150E HAT   41001 0400            80 83  110/  8/ 12 1017.0R
W BERMUDA  41048 0450            80 81  240/ 14/ 16 1016.5F
WVE H/P(F/S)=  4/ 7 WND WVE H/P(F/S)=  3/ 5 SWL H/P/D(F/S/D)=  3/260/ 7

ATLANTIC S 41049 0450            83 85  270/  6/  8 1019.5F
WVE H/P(F/S)=  3/ 8 SWL H/P/D(F/S/D)=  3/ 90/ 8

E BAHAMAS  41046 0450            83 85  100/  6/  8 1018.8F
WVE H/P(F/S)=  3/ 7 WND WVE H/P(F/S)=  2/ 4 SWL H/P/D(F/S/D)=  3/130/ 7

NE BAHAMAS 41047 0450            83 84  200/ 10/ 12 1017.8F
WVE H/P(F/S)=  3/ 7 WND WVE H/P(F/S)=  2/ 5 SWL H/P/D(F/S/D)=  3/160/ 7

120E CANVRL41010 0420            82 84  250/ 12/ 14 1014.8F

END


USA.gov is the U.S. government's official web portal to all federal, state and local government web resources and services.